Location: Songkhla
(7.2000°N, 100.6000°E)
Time: 14:59:23
(UTC+07:00)

Daily predictions for brighter satellites

Satellite Brightness Start Highest point End
(mag) Time Altitude Azimuth Time Altitude Azimuth Time Altitude Azimuth
Delta 128 4.5 18:24:13 10° W 18:28:32 47° NNW 18:33:07 10° NE
COSMOS 2487 2.4 18:26:32 10° S 18:30:01 81° ESE 18:33:29 10° NNE
SWIFT 3.2 18:27:00 10° NW 18:30:57 36° NNE 18:34:55 10° E
deb Ariane 4.2 18:29:13 10° WSW 18:32:51 26° S 18:35:18 10° ESE
Cosmos 1315 Rocket 3.9 18:30:12 10° NNE 18:33:36 25° E 18:37:00 10° SE
USA 229 DEB 3.6 18:28:24 10° SSW 18:34:56 64° ESE 18:41:29 10° NNE
USA 229 3.6 18:28:30 10° SSW 18:35:02 63° ESE 18:41:35 10° NNE
Orbus 21S 2.9 18:34:09 10° WSW 18:36:43 63° NNW 18:45:28 10° ENE
Cosmos 1544 Rocket 4.5 18:32:55 10° SSW 18:37:08 53° W 18:41:22 10° N
Cosmos 1400 Rocket 2.7 18:33:25 10° N 18:37:17 87° ENE 18:41:09 10° S
Cosmos 1697 Rocket 3.8 18:33:30 10° NNE 18:37:51 23° ENE 18:42:12 10° ESE
Tsikada Rocket 4.0 18:34:35 10° S 18:40:35 57° E 18:46:36 10° NNE
CZ-2C R/B 4.2 18:36:13 10° N 18:40:38 63° WNW 18:45:01 10° SSW
Yuri Rocket 3.8 18:35:17 10° SW 18:42:07 66° SSE 18:47:04 10° ENE
ARIANE 5 R/B 2.2 18:27:39 10° W 18:42:20 85° S 18:45:13 12° E
CZ-4 R/B 1.7 18:43:48 10° S 18:47:57 73° WSW 18:52:01 10° NNW
COSMOS 2455 2.9 18:44:01 10° SSW 18:50:01 87° ESE 18:56:02 10° NNE
GPS 2-14 Rocket1 3.0 18:48:03 10° WSW 18:52:09 67° NNW 18:55:42 13° ENE
Cosmos 1461 4.4 18:51:03 10° SSE 18:54:25 20° ESE 18:56:41 15° ENE
NOSS 3-1 (C) 3.2 18:51:49 10° S 18:57:00 50° ESE 19:02:15 10° NE
Cosmos 1707 4.0 18:54:43 10° NE 18:57:35 20° E 18:59:15 16° ESE
YAOGAN 1 2.6 18:55:08 10° S 18:59:26 81° WSW 19:03:46 10° NNW
Cosmos 1544 3.1 18:55:45 10° S 18:59:27 88° W 19:03:08 10° N
GPS 2-17 Rocket1 3.9 18:59:37 10° NW 19:04:10 40° NNE 19:06:57 21° ENE
SPOT 3 Rocket 4.5 19:01:59 10° SE 19:06:10 26° ENE 19:10:22 10° NNE
Ariane Rocket 3.3 19:02:17 10° S 19:07:18 69° WSW 19:12:19 10° NNW
Cosmos 1513 Rocket 4.5 19:02:29 10° N 19:08:52 83° E 19:15:17 10° S
Meteor 2-20 4.3 19:06:17 10° S 19:12:19 71° E 19:18:20 10° N
Cosmos 1464 Rocket 4.1 19:06:14 10° N 19:12:28 83° W 19:18:39 10° S
Atlas Centaur 2 2.6 19:10:46 10° NNW 19:14:39 32° NNE 19:16:20 26° ENE
deb Ariane 4.1 19:06:02 10° W 19:15:07 60° S 19:16:40 30° ESE
MOS 1 4.4 19:09:39 10° SSE 19:15:10 53° ENE 19:20:39 10° N
Intelsat 5-3 Rocket 3.9 19:10:47 10° WSW 19:15:41 80° SSE 19:25:02 19° ENE
GP-B 3.4 19:13:32 10° NNE 19:17:44 43° E 19:21:57 10° SSE
Cosmos 1378 3.5 19:17:45 10° NNW 19:21:25 65° W 19:25:06 10° S
Cosmos 332 Rocket 3.9 19:18:25 10° SSW 19:23:16 78° WNW 19:28:04 10° N
Cosmos 1486 Rocket 4.1 19:19:05 10° N 19:24:11 54° ENE 19:28:29 15° SSE
Tiangong 2 1.3 19:26:24 10° NW 19:29:32 63° SW 19:29:49 59° SSW
Lacrosse 5 rocket 2.5 19:27:23 10° S 19:29:47 26° SSE 19:29:47 26° SSE
BREEZE M DEB (TANK) 2.9 19:29:47 10° SSW 19:34:48 52° SSE 19:34:48 52° SSE
Milstar 3 4.3 19:28:45 10° W 19:36:39 53° NNW 19:48:39 15° NE
Cosmos 1606 Rocket 3.3 19:33:47 10° S 19:38:05 72° E 19:42:24 10° N
Ariane V96 H10-3 3.2 19:36:14 10° WSW 19:37:41 39° WSW 19:37:41 39° WSW
Cosmos 1766 3.5 19:37:05 10° SSW 19:40:56 66° W 19:44:48 10° N
Cosmos 1980 Rocket 2.0 19:43:50 10° N 19:49:22 66° ENE 19:49:40 65° E
Cosmos 1602 Rocket 3.7 19:46:14 10° N 19:50:39 73° W 19:52:15 38° S
CZ-3C R/B 2.7 19:50:15 10° WNW 19:51:07 18° W 19:51:07 18° W
Palapa 6 Rocket 4.1 19:51:28 10° SW 19:57:08 53° SSE 19:57:12 53° SSE
BREEZE-M DEB (TANK) 3.7 19:52:04 10° NW 20:03:46 89° SW 20:04:05 80° SSE
Envisat 3.9 20:06:20 10° S 20:11:10 46° W 20:16:00 10° NNW
CZ-3A R/B 3.8 19:59:17 10° NNW 20:11:57 86° WSW 20:13:58 51° SSE
SWIFT 4.1 20:08:43 10° WNW 20:11:06 31° W 20:11:06 31° W
ARIANE 5 R/B 2.4 20:10:39 10° W 20:13:04 60° WSW 20:13:04 60° WSW
CZ-3B Rocket 3.4 20:11:30 10° SW 20:14:23 27° SW 20:14:23 27° SW
Gbstr 26 Del rocket 4.4 20:11:30 10° WSW 20:16:03 44° NW 20:16:19 44° NW
ARIANE 44L R/B 4.4 13:10:35 10° WSW 20:16:12 88° S 20:17:53 65° E
